GEFSMA_500_meanwind_258.txt.gz
Wind_Speed
2 2 2 1 1 1 1 2 2 2 2 2 1 1 1 1 1 1 1 2 2 2 2 3 3 3 3 3 3 3 4 4 4 4 4 5 5 6 6 6 5 6 6
1 1 1 1 1 1 1 1 1 2 2 2 1 1 1 1 1 1 1 1 2 2 2 3 3 4 4 4 4 4 5 5 5 6 5 5 6 7 7 7 7 7 7
3 2 2 1 1 0 1 0 1 2 2 2 2 1 2 2 2 2 2 2 2 3 3 4 3 4 4 4 5 5 6 7 7 7 7 7 7 8 8 8 8 8 9
5 4 3 2 1 1 1 2 1 2 3 3 3 3 3 3 3 3 3 3 3 3 4 4 5 5 5 5 5 6 7 8 8 8 8 8 9 9 9 9 10 10 10
6 5 4 3 2 2 2 3 2 2 2 3 3 3 3 4 4 4 4 4 4 5 5 5 5 6 5 6 6 7 8 8 8 8 9 9 9 10 10 10 11 11 12
7 6 5 4 4 3 3 3 3 3 3 4 4 3 4 4 4 5 5 5 5 6 6 6 6 6 7 7 7 8 9 9 9 10 10 10 11 11 11 12 13 12 12
8 6 6 6 5 4 4 4 4 3 3 4 4 4 4 5 5 5 5 5 6 6 6 7 7 7 7 8 8 9 9 10 10 11 11 11 11 12 12 13 13 13 14
8 7 6 6 6 6 5 4 4 3 4 4 4 5 5 5 5 5 5 5 6 6 6 7 7 8 8 9 10 10 10 10 10 11 12 12 13 13 13 13 13 14 15
9 8 7 7 7 6 6 5 4 4 5 5 5 5 6 6 6 7 7 7 7 7 7 7 8 8 9 10 11 11 11 11 11 12 12 13 14 15 15 15 15 15 16
10 9 8 8 7 7 7 6 5 5 6 6 6 6 6 7 8 8 8 8 8 8 8 8 9 9 10 11 11 12 12 13 13 13 14 15 15 16 15 15 16 16 16
12 11 10 9 8 7 7 7 6 6 7 7 7 7 7 8 8 8 8 8 9 9 9 9 9 10 10 11 11 12 13 13 14 14 15 16 17 17 17 16 17 17 17
12 12 11 10 9 8 8 8 8 8 8 8 8 8 8 8 8 9 9 9 10 10 10 10 10 11 11 11 12 12 12 13 14 14 15 16 16 17 17 17 17 18 19
12 12 12 11 10 9 9 9 10 10 9 9 9 9 9 9 9 10 10 11 11 12 11 11 12 12 12 13 13 13 14 15 15 16 16 16 17 17 17 17 18 19 19
14 13 13 12 11 10 10 10 10 10 10 10 10 9 10 10 10 10 10 11 11 12 11 12 12 13 14 14 15 15 15 16 16 17 17 17 18 18 18 19 19 20 20
14 14 14 12 11 11 11 11 10 10 10 10 10 10 11 11 11 11 11 11 12 12 12 12 13 14 14 14 15 16 16 17 18 18 19 20 20 20 20 20 21 22 22
14 13 13 13 12 11 11 10 10 11 11 10 10 10 11 11 12 12 12 13 13 12 13 14 14 14 14 15 16 17 17 18 19 19 20 21 21 21 21 22 22 23 23
14 14 14 13 13 12 11 11 11 11 10 10 11 11 12 12 13 13 13 13 14 14 15 15 15 15 15 16 17 17 18 19 19 20 20 21 21 22 22 23 23 23 23
14 14 14 14 13 13 12 11 11 11 11 11 11 12 12 13 14 14 13 14 15 15 16 16 16 17 17 18 18 19 19 20 20 20 21 21 22 23 23 24 24 24 24
15 15 15 14 14 13 13 12 12 12 12 12 12 12 13 13 14 14 14 15 15 16 16 17 17 18 18 19 19 20 21 21 22 23 23 23 23 24 24 24 24 25 25
16 16 15 15 15 14 14 13 13 13 13 13 13 14 14 14 15 15 16 16 16 16 17 17 18 19 19 20 21 21 22 23 24 24 24 24 25 25 25 25 25 26 26
17 16 16 15 15 15 14 14 14 15 15 14 15 15 15 15 15 16 17 17 17 17 18 19 19 20 21 21 22 23 24 24 24 24 25 25 26 26 27 27 27 27 27
17 17 17 16 16 16 16 15 16 16 16 16 16 16 16 17 17 17 17 18 18 19 19 20 21 21 22 23 24 24 24 25 25 25 26 26 27 28 28 28 28 28 28
18 18 18 18 18 18 18 18 18 18 17 18 18 17 18 17 17 18 18 18 19 20 21 22 23 23 23 24 25 25 26 26 26 26 27 28 28 29 29 29 29 29 29
18 18 18 19 19 19 19 19 20 19 19 19 19 19 19 19 19 19 19 20 21 21 23 23 23 23 24 25 26 26 27 27 27 27 28 28 29 29 30 30 30 31 31
19 19 19 19 19 20 21 21 21 21 20 20 19 20 20 20 20 20 21 21 22 23 24 24 24 24 24 26 26 27 27 28 28 28 28 29 29 29 29 30 30 31 31
20 20 20 20 20 21 22 22 21 21 21 21 21 21 21 21 22 22 22 22 23 24 24 24 25 25 26 26 26 27 28 29 30 29 29 30 30 30 30 31 30 30 31

GEFSMA_500_meanwind_264.txt.gz
Wind_Speed
2 1 1 0 0 0 1 1 1 1 1 1 1 1 0 1 1 1 1 1 2 2 3 3 3 3 3 3 3 3 4 4 4 4 5 5 5 5 5 5 5 5 6
3 3 2 1 1 0 0 1 1 1 1 1 1 1 1 1 2 2 1 2 3 3 4 3 3 3 4 3 3 3 4 5 5 4 5 7 7 7 7 6 6 7 7
4 3 4 3 2 1 1 1 1 1 2 2 2 2 3 3 3 2 2 2 3 3 4 3 4 4 4 4 4 4 4 4 4 5 6 7 8 8 8 8 7 8 8
5 5 5 5 4 3 2 2 2 2 2 2 3 4 4 4 3 3 2 3 3 4 4 4 4 4 4 4 4 5 5 5 5 6 7 7 8 10 9 9 9 9 9
7 6 6 5 4 4 3 3 3 3 3 3 4 5 5 4 4 3 3 4 4 4 4 5 5 5 5 5 5 5 5 5 6 7 7 8 9 10 10 10 10 10 11
8 7 7 6 5 5 5 4 4 4 4 4 4 4 4 4 4 4 4 4 4 4 4 5 5 6 6 6 6 6 6 7 7 8 8 8 8 9 10 11 11 12 12
9 8 8 7 6 6 6 5 5 5 5 5 4 4 4 4 4 5 5 5 5 6 6 6 7 7 7 7 7 8 7 8 8 9 9 9 10 10 10 11 12 12 13
10 9 9 8 7 7 7 6 6 6 5 5 4 5 5 5 6 7 7 6 7 7 7 8 7 7 8 8 8 8 8 8 9 9 10 10 10 10 11 12 13 13 14
11 10 10 9 8 7 7 7 6 6 6 5 5 5 5 6 7 8 8 7 7 7 8 8 8 8 9 9 8 8 8 9 10 10 11 11 12 12 12 13 14 14 14
12 12 11 10 9 8 7 7 7 7 7 7 7 7 7 7 8 8 8 8 8 8 9 9 9 9 10 10 9 9 10 10 11 11 12 12 13 13 13 14 15 15 15
12 12 12 11 10 9 8 8 8 7 7 7 8 9 8 8 9 9 8 8 9 9 10 10 10 10 10 10 11 11 11 11 11 12 12 12 13 13 13 14 15 16 16
13 13 12 12 11 10 9 8 8 8 8 8 9 9 10 10 10 10 10 10 10 10 11 11 11 11 11 11 12 12 12 12 13 13 13 13 14 14 14 14 15 16 17
13 13 13 12 11 11 10 9 9 9 10 10 10 10 10 10 11 11 11 11 11 12 11 11 12 12 12 12 12 12 13 13 14 14 15 15 16 16 17 16 17 17 18
14 14 14 13 13 12 11 10 10 11 11 11 11 12 12 11 11 11 11 11 11 11 12 12 12 12 12 13 13 14 14 14 15 16 16 16 17 18 19 18 18 19 19
15 15 14 14 14 13 13 12 12 12 12 12 12 12 12 11 12 12 12 12 13 12 12 12 13 13 14 14 14 15 15 15 16 16 17 18 18 19 19 19 20 20 20
15 16 15 14 14 14 14 14 14 14 14 13 13 13 11 11 12 12 13 12 12 12 13 14 14 14 14 15 15 15 16 16 17 18 19 19 19 20 20 20 20 21 21
16 16 16 16 15 15 15 15 14 14 14 14 13 13 12 12 12 12 13 13 13 13 14 14 14 15 15 16 16 16 17 17 18 19 19 20 20 20 21 21 21 21 22
16 16 16 16 16 16 15 15 15 15 15 14 14 14 13 14 14 14 14 14 15 15 15 15 15 16 17 18 18 19 19 20 20 20 20 21 21 21 21 22 22 23 23
17 17 17 17 17 16 16 16 16 16 16 15 15 15 15 15 15 15 15 15 16 17 17 17 18 18 18 19 20 20 21 21 21 21 21 21 21 22 22 22 22 23 23
18 19 18 18 17 17 17 17 17 17 16 16 16 16 16 16 16 17 17 18 18 19 19 19 19 19 20 21 22 22 22 23 23 23 22 22 22 22 23 23 23 24 24
19 19 19 18 18 17 18 18 17 18 18 17 17 17 17 17 17 17 18 19 19 19 19 20 20 20 21 22 23 23 24 24 23 23 23 23 24 24 24 25 25 25 25
20 20 20 19 18 19 19 19 19 19 18 19 18 18 18 18 19 19 20 20 21 20 21 21 21 21 21 22 22 23 23 23 23 24 24 24 24 25 25 25 25 26 26
20 20 20 20 20 20 20 20 20 20 19 19 19 20 20 20 21 21 21 21 21 22 22 22 22 22 22 23 23 23 23 23 24 24 24 24 24 25 26 26 27 27 27
21 20 21 22 22 21 21 21 21 21 20 20 20 21 21 22 22 22 22 22 22 22 21 22 22 22 22 23 24 24 23 24 23 23 24 24 25 26 26 27 27 27 28
21 22 22 23 23 23 23 22 22 21 21 22 22 22 23 23 23 23 23 22 21 22 22 22 22 23 23 23 24 24 24 24 24 24 25 25 26 27 27 28 28 28 28
23 23 23 24 24 23 23 23 23 22 22 23 23 23 23 23 23 23 23 22 22 22 23 23 23 24 24 25 25 25 25 25 25 25 26 26 26 27 27 28 28 28 28

GEFSMA_500_meanwind_270.txt.gz
Wind_Speed
4 3 2 1 2 2 1 2 2 2 2 2 1 1 1 1 2 2 1 1 1 2 2 3 3 4 4 4 4 4 5 5 6 7 7 7 6 7 7 8 8 8 8
4 3 2 2 1 1 1 1 1 2 2 2 2 2 2 2 2 3 2 2 3 3 3 3 4 4 3 4 5 5 6 5 6 6 7 7 7 7 7 8 8 9 8
4 3 3 2 1 0 1 0 0 1 1 1 3 3 3 3 3 3 3 3 4 4 4 4 4 5 5 5 5 6 6 6 6 6 7 8 8 8 8 9 9 10 10
5 4 2 2 2 1 0 1 1 1 1 2 3 4 4 5 4 4 3 4 5 4 5 5 5 6 6 5 6 7 7 7 8 8 8 8 9 9 10 10 10 11 11
5 5 3 2 2 1 1 1 2 1 1 2 2 3 4 4 4 5 4 5 5 5 5 5 6 6 7 6 6 7 8 8 8 8 9 9 9 10 11 11 12 12 13
6 5 4 4 2 2 1 1 1 2 2 2 3 3 3 4 5 5 5 6 6 6 6 6 6 6 7 7 7 7 8 8 9 9 9 10 10 11 11 12 12 12 14
7 6 5 4 4 3 2 2 2 3 3 3 3 3 4 4 5 6 6 7 7 8 8 8 7 7 7 7 8 8 8 9 10 10 10 10 11 12 12 12 13 13 13
7 6 6 5 4 4 3 3 3 3 3 3 4 4 4 5 6 6 7 7 7 8 8 8 8 8 8 7 8 8 9 9 10 10 11 12 12 13 13 13 13 14 14
8 8 7 6 5 4 4 4 3 3 3 4 5 5 6 6 6 7 7 8 9 9 9 9 9 9 9 9 9 9 10 10 10 10 11 11 13 13 14 14 14 15 15
9 9 8 8 7 6 5 4 4 4 4 5 6 6 6 6 7 7 8 8 10 10 10 11 11 10 11 11 10 10 11 11 12 12 12 12 13 14 14 15 15 15 16
10 9 9 8 8 7 6 5 5 5 6 7 7 7 7 8 8 8 9 10 10 11 11 11 12 13 13 13 12 12 11 12 12 13 13 14 14 14 15 15 16 16 17
10 10 10 9 9 9 7 7 7 7 7 8 8 8 9 9 9 9 9 11 11 11 12 12 13 13 14 14 13 13 13 13 13 14 14 14 15 16 16 16 17 17 18
10 10 10 10 10 10 9 8 8 8 8 9 9 10 10 10 10 10 10 11 12 11 11 11 11 12 13 14 14 14 14 14 14 15 15 15 16 16 17 17 18 19 20
10 10 11 10 10 10 9 9 9 9 10 10 11 11 11 11 11 11 11 12 12 12 11 11 11 12 13 13 14 14 14 14 14 15 16 16 17 17 17 18 19 20 20
10 10 11 11 11 10 10 10 10 10 11 11 11 12 12 12 12 12 12 12 11 11 12 12 13 12 13 14 14 15 15 15 15 16 17 17 18 18 18 19 19 20 21
11 11 11 11 11 11 11 11 11 12 12 12 12 12 12 12 11 10 11 12 12 12 12 13 14 14 14 15 15 15 16 16 17 17 18 19 19 20 19 20 20 20 21
11 11 11 11 11 12 12 12 12 13 13 12 12 12 12 12 12 12 12 12 13 13 14 14 14 14 15 16 16 17 18 18 18 18 19 19 20 21 21 21 22 22 22
12 12 12 12 12 12 13 13 13 13 13 13 13 13 13 13 13 14 14 14 14 14 14 15 15 15 16 17 17 18 19 20 20 20 21 21 22 21 22 22 23 23 23
12 13 13 13 13 13 13 14 14 14 14 14 14 14 14 14 14 15 15 15 15 15 15 16 16 16 17 18 19 20 20 20 21 22 22 22 22 22 22 22 22 22 22
14 14 14 14 14 14 15 15 15 15 15 15 15 15 14 15 15 16 16 16 16 17 17 17 18 18 19 20 20 20 21 21 22 22 22 22 22 22 22 22 22 23 23
15 15 16 15 15 16 16 16 17 17 17 16 16 16 15 16 16 17 17 17 17 18 18 19 20 20 21 22 22 22 22 23 23 22 22 22 22 22 22 22 23 23 24
17 17 17 17 17 17 17 17 17 17 17 17 17 17 17 18 18 18 18 18 18 19 19 20 20 20 21 21 22 22 22 22 21 21 21 21 20 21 22 23 23 24 25
17 18 18 19 19 19 19 19 18 18 17 17 18 19 19 19 19 19 19 20 19 20 20 21 21 21 21 22 22 21 21 21 21 21 21 21 21 22 24 24 25 25 25
18 19 20 20 20 20 20 20 19 19 18 18 19 19 20 20 20 20 21 21 21 20 21 21 21 21 21 21 20 20 21 21 21 21 22 23 24 24 24 24 25 25 26
20 20 21 21 21 21 21 21 20 19 19 19 20 20 21 21 21 21 22 22 21 21 22 22 21 21 21 22 22 22 22 22 22 22 22 23 24 25 25 26 26 27 27
21 22 22 22 22 22 22 21 20 20 20 20 21 21 21 21 21 21 21 22 22 22 22 22 22 22 22 22 22 23 23 23 23 23 24 24 25 25 26 26 27 28 28

GEFSMA_500_meanwind_276.txt.gz
Wind_Speed
5 4 3 3 2 1 1 0 0 1 2 2 3 3 3 3 3 3 3 3 2 3 3 4 4 5 5 6 7 7 6 7 7 7 7 7 8 8 8 8 8 9 9
5 4 3 3 2 2 1 1 1 1 2 2 2 3 3 4 4 4 5 5 4 4 5 5 5 6 6 7 7 7 8 8 8 8 8 8 8 8 8 8 9 9 9
6 5 3 3 3 2 1 1 1 1 2 2 2 2 3 4 4 4 5 6 6 6 6 6 6 6 6 7 8 8 8 9 9 9 9 9 9 9 9 10 10 10 10
7 5 4 3 2 2 2 2 2 2 2 2 3 4 4 4 4 5 5 6 6 7 7 7 7 7 8 8 8 9 9 9 10 10 11 11 11 11 10 11 11 11 12
7 6 4 3 3 3 2 2 2 3 3 3 3 4 5 5 5 6 6 7 7 8 8 8 9 9 9 9 9 10 10 10 10 11 11 12 12 12 11 11 12 12 13
7 6 5 4 3 3 3 3 3 4 3 4 4 5 6 6 6 6 7 8 8 9 9 10 10 10 10 10 10 10 10 10 11 12 12 12 12 13 13 12 12 13 14
7 6 5 6 5 4 4 4 4 4 4 5 5 6 6 7 7 8 8 8 8 9 10 10 10 10 11 11 11 11 11 11 11 12 13 13 14 15 14 15 15 15 15
7 6 6 7 6 5 4 4 4 5 5 5 6 6 7 8 8 9 9 9 9 10 10 11 11 11 11 11 12 12 12 13 13 14 14 14 15 15 16 16 17 17 17
7 7 7 7 7 6 5 5 5 5 6 6 7 7 8 8 9 10 10 10 10 11 11 12 12 12 13 13 14 14 14 14 14 14 14 15 16 16 16 17 18 18 18
8 8 8 8 8 7 6 6 6 7 7 7 7 8 8 9 9 10 11 11 11 12 12 13 13 13 13 14 14 15 15 15 15 15 15 16 16 17 18 18 17 18 18
8 8 8 8 8 8 7 7 8 8 8 8 8 8 9 10 10 11 11 13 13 13 14 14 15 14 14 14 14 15 15 15 16 16 16 17 17 18 18 19 18 19 19
9 9 8 8 8 8 8 8 8 8 8 8 8 9 10 11 11 12 12 13 14 14 14 15 15 15 14 15 15 15 16 16 17 17 17 17 18 18 19 19 20 20 20
9 9 9 9 9 9 9 9 9 9 9 9 10 10 11 12 12 13 13 13 13 14 14 14 15 15 15 15 16 15 16 17 17 17 18 18 18 19 19 20 20 21 21
9 10 10 10 10 11 11 11 10 10 10 10 11 12 12 13 13 13 13 13 13 13 13 14 14 15 15 16 16 16 17 17 18 18 19 19 20 20 20 21 21 23 22
11 11 11 11 11 11 11 12 12 11 11 12 12 13 13 14 13 13 14 14 13 13 13 14 14 15 15 15 16 17 17 18 19 19 20 20 21 21 21 22 22 22 23
11 11 12 12 12 12 12 13 13 13 13 13 13 14 13 14 14 14 15 15 15 15 15 15 15 15 16 16 17 17 18 19 19 19 19 20 21 21 21 21 22 22 23
13 13 13 13 13 13 13 14 14 14 14 14 14 15 15 15 15 15 15 16 16 16 15 15 16 16 17 18 18 18 18 19 20 20 21 22 23 23 23 23 24 23 24
14 14 14 14 14 14 14 15 15 16 16 16 16 16 16 17 17 17 17 17 17 17 17 17 17 18 18 18 18 19 20 21 22 22 22 23 23 24 24 24 24 24 24
15 14 14 14 15 15 15 16 16 17 17 17 17 17 17 18 18 18 17 18 18 18 18 18 18 18 19 19 19 20 21 22 23 23 23 24 24 25 24 24 24 24 23
15 15 16 16 16 17 17 17 17 18 18 18 18 19 18 18 18 18 18 19 19 19 19 19 19 19 20 19 20 21 22 22 23 23 24 24 24 24 24 25 24 24 24
17 17 17 18 18 18 19 19 19 19 19 19 20 20 19 19 19 19 19 20 20 19 20 20 20 20 20 20 21 21 22 23 23 23 23 23 23 24 24 24 24 24 24
18 18 18 19 19 20 20 20 21 20 20 20 20 20 20 19 19 20 20 21 21 21 21 21 21 21 21 22 22 23 23 22 22 23 23 22 22 23 23 23 24 24 24
19 19 20 20 21 21 21 21 22 22 21 21 21 20 20 20 20 21 22 22 22 22 22 22 22 22 22 23 23 24 24 24 24 23 23 23 22 23 23 23 23 24 24
20 20 20 21 22 22 21 21 22 22 21 21 21 21 21 21 22 22 22 23 23 23 23 23 23 23 23 23 23 24 24 23 23 23 23 23 24 23 24 24 24 24 24
20 20 21 22 22 22 22 22 22 22 22 22 22 22 22 23 23 23 23 24 24 24 25 25 24 24 24 24 24 24 24 24 23 23 24 24 24 24 24 24 25 25 25
21 21 22 23 23 23 22 23 23 23 23 23 23 23 23 23 23 24 24 25 25 25 25 24 24 25 25 24 24 25 24 24 24 24 24 24 25 25 25 26 26 26 25

GEFSMA_500_meanwind_282.txt.gz
Wind_Speed
5 5 5 5 4 4 3 3 2 1 1 1 1 1 2 2 3 3 3 3 4 5 5 5 6 6 6 6 7 8 8 9 10 9 9 9 9 10 10 10 11 11 10
5 4 3 3 3 3 3 2 1 1 1 1 1 2 2 3 3 3 4 4 5 5 6 6 6 6 7 7 7 8 8 9 10 10 10 10 10 10 11 11 11 11 11
4 3 3 2 2 2 1 1 1 1 0 1 1 2 2 3 3 4 5 6 6 6 7 8 8 8 8 8 8 8 9 10 10 10 11 11 11 11 12 12 12 12 12
5 4 3 2 2 1 1 1 1 1 1 1 2 2 3 4 4 5 5 6 7 8 8 8 9 9 9 9 9 9 9 10 11 11 12 12 13 13 13 13 14 14 13
5 5 4 3 3 2 1 1 0 1 1 2 2 3 4 4 5 6 7 7 8 8 8 9 10 10 10 9 9 9 10 10 11 12 11 12 13 13 14 14 15 15 15
6 5 4 4 3 2 1 1 1 1 1 2 3 4 4 5 6 7 7 8 8 9 9 9 10 10 11 11 11 11 11 11 12 13 13 14 14 14 14 15 15 16 16
5 5 5 5 4 3 2 1 2 2 2 3 4 4 5 5 6 6 7 8 9 9 9 10 11 11 11 11 11 12 12 13 13 13 14 14 15 16 16 16 17 17 17
5 4 4 4 4 3 3 2 2 3 3 4 5 5 5 6 7 7 8 9 9 10 10 10 11 11 12 12 12 13 13 13 13 13 14 14 15 15 16 17 17 18 18
5 4 4 4 4 4 4 3 3 3 4 5 6 6 6 7 7 8 8 9 10 11 11 11 11 12 13 13 14 14 15 15 15 15 15 15 15 16 16 17 18 18 19
5 4 5 4 4 4 4 4 5 5 5 6 6 6 7 7 8 9 10 10 11 12 13 13 13 13 14 14 15 15 15 16 16 15 16 16 16 16 17 19 19 19 20
4 6 6 5 5 5 6 6 6 6 6 7 7 8 8 9 9 10 11 12 12 13 13 13 14 14 14 15 15 15 16 16 16 16 16 17 17 17 18 20 20 21 21
5 6 6 6 6 6 6 7 7 8 8 8 8 9 9 10 11 11 12 13 14 14 13 13 14 14 15 15 16 16 16 16 17 17 18 18 18 18 19 19 20 20 20
6 7 7 7 7 7 7 7 8 8 9 9 10 10 11 11 11 12 13 13 13 14 14 14 15 15 15 16 16 16 16 16 17 18 19 19 19 19 19 19 20 20 21
7 7 7 8 8 8 8 9 9 9 10 10 11 11 12 12 12 12 13 13 14 14 14 15 15 16 15 16 16 17 17 17 18 19 19 20 20 20 20 20 21 21 22
7 8 9 9 9 9 9 9 10 10 11 11 12 12 13 13 12 13 14 14 14 14 14 15 15 15 15 15 16 17 18 19 19 20 20 20 20 20 21 21 21 22 22
9 10 10 10 10 10 10 11 11 12 12 12 13 12 12 12 13 14 14 14 14 14 14 15 15 15 16 16 16 17 17 18 19 20 20 20 21 20 20 21 21 22 23
10 10 10 11 11 11 11 11 12 12 13 13 13 13 13 14 14 15 15 15 15 16 16 16 17 17 17 18 17 17 18 18 18 18 19 19 20 20 21 22 22 22 23
11 11 12 12 12 12 13 12 13 13 13 14 14 14 15 15 15 15 15 16 16 17 17 17 17 18 18 18 18 18 18 18 19 19 20 20 20 20 21 22 23 23 23
12 12 13 14 14 14 14 14 14 14 15 15 16 16 16 16 16 16 16 17 17 17 18 18 19 19 19 19 19 19 19 19 19 20 21 21 22 22 22 22 22 22 23
15 14 14 14 15 15 16 16 15 15 16 17 17 17 17 17 17 18 18 18 18 18 19 19 19 19 19 19 20 19 20 20 21 21 21 22 23 23 23 23 23 23 24
16 15 15 15 16 16 16 17 17 17 18 18 18 18 19 19 19 19 19 18 18 19 19 20 20 20 20 20 21 21 22 22 22 22 22 23 23 23 23 23 24 24 24
18 18 17 16 17 17 17 18 18 18 19 19 19 19 19 19 19 20 20 19 19 20 21 21 21 21 21 22 22 22 22 23 23 23 23 24 24 23 23 24 24 24 24
19 19 19 19 18 18 19 19 20 20 20 20 20 20 21 21 21 21 21 21 21 22 22 22 22 23 23 23 23 23 24 24 24 23 24 24 24 24 24 24 24 24 24
21 20 19 19 19 20 20 20 21 21 21 21 21 22 22 22 22 22 23 23 23 23 23 23 23 23 23 24 24 24 24 25 24 24 24 24 24 24 24 24 24 25 25
21 20 19 20 21 21 21 21 22 22 22 23 23 24 24 24 23 24 24 24 24 24 24 24 24 24 24 24 24 24 24 25 24 24 24 24 24 24 24 23 24 25 25
22 22 21 21 21 22 22 22 24 24 24 25 25 25 24 24 24 24 25 25 25 25 25 25 25 25 24 24 24 24 25 25 25 24 24 24 24 24 24 25 25 25 25

GEFSMA_500_meanwind_288.txt.gz
Wind_Speed
4 4 3 3 3 2 2 3 2 2 2 1 1 0 0 1 2 2 2 3 4 5 5 6 6 6 6 6 6 7 7 7 8 8 8 9 9 10 10 10 9 9 10
4 3 2 2 3 2 2 1 1 1 1 0 0 0 1 2 2 3 3 4 5 5 5 6 6 6 6 7 7 7 8 8 9 10 10 10 10 10 10 11 11 11 11
4 3 3 2 2 1 1 1 1 2 1 1 1 1 1 2 3 4 5 5 6 6 6 7 7 7 7 8 8 9 9 9 10 11 12 12 12 11 11 11 12 13 13
4 3 3 2 2 1 1 1 1 1 1 2 2 2 3 3 4 5 5 6 6 6 7 7 7 7 8 8 9 10 10 10 11 11 12 12 12 12 12 12 12 13 14
4 4 3 4 4 3 2 2 2 2 2 2 3 3 3 4 5 5 6 7 7 7 7 8 8 8 9 9 10 11 11 11 11 11 11 11 12 12 13 13 13 14 14
5 5 5 5 4 4 3 3 3 2 3 3 3 4 4 5 5 6 6 7 8 8 9 9 9 10 10 10 11 12 12 12 12 11 11 11 12 12 14 14 14 14 14
5 5 5 4 4 4 4 4 3 4 3 4 4 4 4 5 6 6 7 8 8 8 9 9 10 11 11 11 12 12 13 13 13 12 12 12 12 13 13 13 14 14 14
4 5 5 4 4 4 4 4 4 4 5 5 5 5 6 7 7 7 7 8 8 9 9 10 11 11 12 12 13 12 13 13 13 14 14 13 13 13 13 14 14 15 15
6 5 5 4 5 5 5 6 6 6 6 7 7 7 7 8 8 8 8 8 9 9 10 10 10 11 12 13 13 13 13 13 13 13 14 14 14 14 14 14 15 16 16
7 6 5 5 5 5 6 7 7 8 8 8 8 8 8 8 8 9 9 9 10 10 10 11 11 12 13 13 13 13 13 13 13 13 13 14 14 15 15 15 16 16 16
6 6 6 6 6 7 7 7 8 8 9 9 9 9 9 9 9 10 10 10 11 11 12 12 13 13 13 13 13 14 14 14 13 13 13 14 15 16 17 17 17 17 16
7 7 7 7 8 9 9 9 9 9 9 9 10 10 10 10 10 11 11 12 12 13 12 13 13 13 14 14 14 15 15 14 13 13 13 14 15 16 17 17 18 17 17
8 8 8 8 9 10 10 10 10 10 10 10 10 11 11 11 11 12 12 13 13 13 13 13 13 13 13 14 14 15 15 14 14 14 14 15 16 16 17 17 18 19 19
9 9 9 9 10 11 11 11 11 12 11 11 11 11 11 12 12 12 12 12 12 12 12 13 14 14 14 15 15 15 15 15 15 15 16 16 16 17 17 18 19 19 20
10 10 10 11 11 12 12 12 12 12 12 12 12 12 12 12 12 12 12 12 12 13 14 14 14 15 15 15 14 14 15 15 15 16 16 17 17 17 17 18 19 20 20
11 11 11 12 12 12 12 13 13 13 13 13 13 13 13 12 12 13 13 14 14 14 14 15 15 15 15 16 15 15 15 16 16 16 16 16 16 17 18 19 19 19 20
11 12 12 13 13 13 13 13 13 14 14 14 14 14 14 13 14 14 15 15 15 16 15 16 16 16 16 17 16 16 16 17 17 17 17 17 17 17 17 19 20 21 21
13 13 13 14 14 14 14 14 14 14 14 14 15 15 15 15 15 16 16 16 17 18 18 17 17 18 18 18 17 17 18 17 17 18 18 18 18 18 18 19 20 21 21
14 14 15 15 15 15 16 16 16 16 16 16 17 17 17 16 16 17 18 18 18 18 19 18 19 19 19 19 19 19 19 18 18 18 19 20 19 19 19 20 21 21 22
15 16 16 16 16 17 17 17 17 18 18 18 18 18 18 17 17 18 18 19 19 19 20 20 20 20 20 20 20 20 20 20 20 20 20 20 20 20 20 21 22 22 22
16 16 17 17 18 18 18 18 18 19 18 18 18 19 19 19 19 19 19 20 20 21 21 21 22 22 21 21 21 21 21 22 22 21 21 22 22 22 22 22 23 23 23
17 17 18 18 19 19 20 19 20 20 19 19 19 19 20 21 20 20 20 21 21 22 22 22 23 22 22 22 22 22 22 22 22 22 22 22 22 22 22 22 23 22 23
19 20 20 20 21 22 22 22 22 21 22 20 20 20 20 21 22 22 23 23 24 24 24 24 23 23 23 23 23 23 23 23 23 23 23 22 23 22 22 22 23 23 23
22 22 22 22 22 22 22 23 22 22 22 22 22 21 22 23 24 25 25 25 26 26 27 26 26 26 25 25 25 24 24 24 24 24 24 23 23 23 22 22 23 23 23
23 23 23 23 23 23 23 23 23 24 24 24 24 24 25 26 27 27 27 27 27 27 28 27 27 26 26 25 25 24 24 24 24 24 25 25 24 24 23 23 23 24 23
25 24 24 24 24 24 24 24 24 25 26 26 26 26 26 27 27 28 28 28 28 29 29 28 28 27 26 25 25 25 25 25 25 25 25 25 25 25 24 24 24 25 25